Lid_Strength_Index
12 14 16 15 14 14 15 16 17 15 13 14 14 15 13 11 13 13 13 13 13 13 12 12 12 12 12 12 11 11 10 9 9 8 7 6 6 5 5 4 4 3 3 3
14 15 13 12 12 13 15 16 16 15 13 14 15 15 13 12 13 13 13 13 14 14 14 13 13 13 13 13 12 12 11 10 10 9 9 9 8 8 7 6 5 5 4 4
16 13 11 12 13 14 15 16 16 15 14 14 16 17 15 14 13 13 13 13 13 14 14 14 14 14 13 14 14 13 12 11 11 10 9 10 10 10 10 10 8 6 6 6
13 11 12 13 14 14 16 13 14 14 17 19 16 20 16 15 14 14 14 14 14 14 13 13 13 14 14 14 14 14 13 13 12 11 11 12 12 12 11 11 10 9 8 7
14 14 14 15 14 13 15 14 14 15 17 18 17 20 17 14 15 15 14 14 14 14 14 14 14 13 13 14 14 14 14 13 13 12 13 13 13 13 12 12 12 11 10 9
14 13 13 13 12 12 13 14 15 16 17 21 17 17 17 16 14 14 13 13 13 13 14 13 13 13 14 14 14 14 14 14 13 13 13 13 13 13 13 13 13 13 12 11
14 14 13 11 14 13 13 16 19 20 21 20 15 16 15 14 13 12 13 14 13 14 14 13 14 13 13 14 15 14 14 15 14 14 14 14 14 14 14 13 14 14 14 13
15 16 13 12 13 14 15 15 18 23 21 19 15 18 14 12 12 12 12 13 13 14 13 14 13 14 14 14 14 14 14 15 15 14 13 14 14 14 14 14 14 15 14 14
15 16 13 13 12 12 14 15 12 16 15 18 17 14 12 12 12 13 13 13 14 13 13 13 14 14 14 14 14 14 14 15 15 15 15 15 14 14 15 15 15 15 15 14
13 16 12 13 12 12 12 12 16 15 22 22 18 17 15 13 12 12 13 13 13 13 13 13 13 13 14 14 14 14 14 15 15 14 15 16 16 15 14 15 16 16 15 15
11 13 14 12 13 13 13 14 14 13 15 20 22 17 11 11 12 13 13 12 12 13 13 13 13 13 14 14 14 15 15 15 14 14 14 14 15 15 14 15 15 15 15 16
10 12 18 14 10 10 11 12 12 16 18 16 17 16 10 11 12 12 11 11 12 12 13 13 12 13 13 14 14 15 15 15 13 13 13 15 14 15 14 14 14 14 16 16
10 14 21 18 14 11 14 12 12 12 13 18 19 16 11 11 11 11 10 11 12 13 13 12 12 13 13 13 14 15 15 14 12 13 14 14 14 15 15 14 14 14 15 15
8 12 16 18 16 13 15 14 13 15 19 19 16 15 11 10 11 10 9 9 11 12 13 13 13 13 13 13 13 14 13 13 13 12 13 14 14 15 15 15 15 15 15 16
10 16 14 14 14 14 14 14 14 14 13 17 14 14 12 11 12 13 13 12 12 12 12 13 13 13 13 13 13 12 13 13 13 13 13 13 13 13 13 13 14 15 16 16
12 19 17 21 14 14 16 15 15 14 14 14 13 13 10 13 13 13 13 13 13 13 13 12 13 13 12 12 12 11 11 11 12 12 12 11 11 11 12 12 12 12 13 13
14 17 22 24 16 18 22 18 15 14 13 14 16 13 16 14 13 14 14 13 13 13 13 12 12 12 12 12 11 11 11 12 12 12 12 11 11 11 11 11 12 12 13 13
15 18 21 25 25 29 18 15 15 15 14 16 17 18 15 14 14 13 13 13 13 12 12 11 11 10 10 10 11 11 11 11 11 12 13 12 11 12 12 12 13 13 13 14
13 14 22 24 28 21 16 15 16 17 18 17 17 15 14 14 14 15 12 11 11 10 10 10 9 10 10 11 11 11 11 11 12 12 12 13 14 15 15 16 16 16 16 16
14 13 16 30 26 27 19 17 14 15 21 19 20 19 16 14 19 16 11 9 9 9 9 9 10 10 10 11 11 12 13 13 14 13 14 14 15 17 18 18 19 18 19 18
25 24 18 18 21 22 16 14 13 23 19 17 16 14 14 15 14 12 10 9 8 8 9 10 11 11 12 12 13 14 14 15 14 15 16 16 17 19 20 20 20 21 21 20
21 23 26 27 27 24 15 15 17 14 12 12 12 11 12 11 10 10 9 9 9 10 11 11 13 13 13 13 15 16 16 15 16 17 18 19 20 20 20 22 22 22 22 23
21 18 21 19 20 14 14 12 11 10 11 10 10 9 10 10 10 9 10 9 10 11 11 13 15 14 14 15 16 18 17 17 18 22 22 21 21 21 21 22 22 23 23 23
16 15 17 18 15 13 11 10 9 9 9 8 8 8 9 10 9 9 10 10 10 12 13 14 16 16 17 18 17 19 18 17 24 26 22 21 21 21 21 21 22 23 23 24
15 15 17 15 13 11 10 10 9 9 8 8 8 9 9 9 9 9 10 12 12 13 14 15 17 17 18 18 20 22 19 22 23 21 20 21 21 22 22 22 23 22 21 20
12 13 14 15 10 10 9 9 8 9 9 8 9 9 9 9 10 11 13 13 14 15 16 16 17 18 20 22 22 23 24 25 24 21 20 21 21 21 22 23 23 19 18 17